Regional Weather Roundup
Issued by NWS Goodland, KS

Home | Current Version | Previous Version | Text Only | Print | Product List | Glossary On
Versions: 1 2 3 4 5 6 7 8 9 10 11 12 13 14 15 16 17 18 19 20 21 22 23 24 25 26 27 28 29 30 31 32 33 34 35 36 37 38 39 40 41 42 43 44 45 46 47 48 49 50
000
ASUS43 KGLD 040208
RWRGLD

GOODLAND FORECAST AREA HOURLY WEATHER ROUNDUP
NATIONAL WEATHER SERVICE GOODLAND KS
700 PM MST SAT DEC 03 2016

...OFFICIAL OBSERVATIONS...

CITY           SKY/WX    TMP DP  RH WIND       PRES   REMARKS
GOODLAND KS    CLEAR     28  26  92 S10       29.99R WCI  19
HILL CITY KS   CLOUDY    32  31  96 SW5       30.06S FOG
IMPERIAL NEB   PTCLDY    34  25  69 W6        29.99R
MCCOOK NEB     CLOUDY    35  32  88 S7        30.02R
AKRON CO       CLOUDY    27  14  58 NW8       30.01R
BURLINGTON CO  CLOUDY    25  19  78 SW9       29.99R
LIMON CO       CLEAR     19  13  77 CALM      30.01R
$$

...UNOFFICIAL OBSERVATIONS...

CITY           SKY/WX    TMP DP  RH WIND       PRES   REMARKS
COLBY KS       FOG       34  34 100 S7        30.02S VSB 1/2
LENORA KS        N/A     31  32 100 MISG        N/A
NORTON KS      CLOUDY    34  30  86 S5        30.03F
SHARON SPRINGS   N/A     28  25  87 S7          N/A
TRENTON NEB      N/A     29  32 100 SW5         N/A
KIT CARSON CO    N/A     23  17  78 CALM        N/A
YUMA CO        FAIR      30  12  47 W7        30.01R
$$




USA.gov is the U.S. government's official web portal to all federal, state and local government web resources and services.